C/2019 B3 ( PanSTARRS )

Japanese version
Home page
Updated on February 5, 2022

---------------------------------------------------------------------

* Profile

Discovery Date January 24, 2019
Magnitude 19.6 mag
Discoverer Pan-STARRS 1 telescope (Haleakala)

* Pictures

* Orbital Elements

Epoch 2022 Jan. 21.0 TT = JDT 2459600.5
T 2021 Jan. 20.34248 TT                                 Rudenko
q   6.8234697            (2000.0)            P               Q
z  -0.0002120      Peri.  263.93808     -0.11636969     +0.99289043
 +/-0.0000014      Node   358.43617     +0.00234298     -0.02493054
e   1.0014467      Incl.   66.53556     -0.99320320     -0.11639186
From 150 observations 2019 Jan. 24-2022 Jan. 29, mean residual 0".5.

* Magnitudes Graph

        m1 = 5.5 + 5 log d + 10.0 log r

---------------------------------------------------------------------

The orbital elements are published on M.P.E.C. 2022-C56.
The magnitudes graphs are made with Comet for Windows.

---------------------------------------------------------------------

Copyright(C) Seiichi Yoshida (comet@aerith.net). All rights reserved.